contact:dominique.lefevre@mio.osupytheas.fr, maurice.libes@osupytheas.fr, didier.mallarino@osupytheas.fr
Project:EMSO http://www.emso-fr.org/EMSO-France
Depth: 2436.0 m
Title:EMSO Ligure Ouest : Data MII capteur MICROCAT
DateTime_Computer,Latitude,Longitude,Temperature,Conductivity,Pressure,DateTime_Instrument
DateTime_Computer,Latitude,Longitude,degC,S m-1,dbar,DateTime_Instrument
2021-02-17T00:02:48Z,42.805,6.029,13.3027,4.60032,2470.194,2021-2-17T02:03:52Z
2021-02-17T00:05:51Z,42.805,6.029,13.3037,4.60014,2470.18,2021-2-17T02:06:55Z
2021-02-17T00:08:54Z,42.805,6.029,13.3032,4.60039,2470.18,2021-2-17T02:09:58Z
2021-02-17T00:11:57Z,42.805,6.029,13.3047,4.60053,2470.217,2021-2-17T02:13:01Z
2021-02-17T00:15:00Z,42.805,6.029,13.3044,4.60053,2470.227,2021-2-17T02:16:04Z
2021-02-17T00:18:03Z,42.805,6.029,13.3042,4.60062,2470.217,2021-2-17T02:19:07Z
2021-02-17T00:21:06Z,42.805,6.029,13.3034,4.60049,2470.194,2021-2-17T02:22:10Z
2021-02-17T00:24:10Z,42.805,6.029,13.3039,4.60033,2470.156,2021-2-17T02:25:14Z
2021-02-17T00:27:13Z,42.805,6.029,13.3034,4.60053,2470.217,2021-2-17T02:28:17Z
2021-02-17T00:30:16Z,42.805,6.029,13.3040,4.60035,2470.171,2021-2-17T02:31:20Z
2021-02-17T00:33:19Z,42.805,6.029,13.3029,4.60041,2470.18,2021-2-17T02:34:23Z
2021-02-17T00:36:22Z,42.805,6.029,13.3051,4.60023,2470.171,2021-2-17T02:37:26Z
2021-02-17T00:39:25Z,42.805,6.029,13.3048,4.60040,2470.194,2021-2-17T02:40:29Z
2021-02-17T00:42:28Z,42.805,6.029,13.3028,4.60026,2470.156,2021-2-17T02:43:32Z
2021-02-17T00:45:31Z,42.805,6.029,13.3018,4.60034,2470.147,2021-2-17T02:46:35Z
2021-02-17T00:48:34Z,42.805,6.029,13.3023,4.60074,2470.156,2021-2-17T02:49:39Z
2021-02-17T00:51:38Z,42.805,6.029,13.3029,4.60011,2470.156,2021-2-17T02:52:42Z
2021-02-17T00:54:41Z,42.805,6.029,13.3023,4.60046,2470.171,2021-2-17T02:55:45Z
2021-02-17T00:57:44Z,42.805,6.029,13.3031,4.60039,2470.171,2021-2-17T02:58:48Z
2021-02-17T01:00:47Z,42.805,6.029,13.3035,4.60039,2470.156,2021-2-17T03:01:51Z
2021-02-17T01:03:50Z,42.805,6.029,13.3031,4.60026,2470.171,2021-2-17T03:04:54Z
2021-02-17T01:06:53Z,42.805,6.029,13.3034,4.60052,2470.171,2021-2-17T03:07:57Z
2021-02-17T01:09:56Z,42.805,6.029,13.3034,4.60022,2470.133,2021-2-17T03:11:00Z
2021-02-17T01:13:00Z,42.805,6.029,13.3037,4.60037,2470.171,2021-2-17T03:14:04Z
2021-02-17T01:16:03Z,42.805,6.029,13.3031,4.60036,2470.156,2021-2-17T03:17:07Z
2021-02-17T01:19:06Z,42.805,6.029,13.3026,4.60030,2470.156,2021-2-17T03:20:10Z
2021-02-17T01:22:09Z,42.805,6.029,13.3028,4.60057,2470.194,2021-2-17T03:23:13Z
2021-02-17T01:25:12Z,42.805,6.029,13.3031,4.60052,2470.156,2021-2-17T03:26:16Z
2021-02-17T01:28:15Z,42.805,6.029,13.3039,4.60011,2470.171,2021-2-17T03:29:19Z
2021-02-17T01:31:18Z,42.805,6.029,13.3030,4.60033,2470.147,2021-2-17T03:32:22Z
2021-02-17T01:34:21Z,42.805,6.029,13.3006,4.60057,2470.11,2021-2-17T03:35:25Z
2021-02-17T01:37:24Z,42.805,6.029,13.3040,4.60042,2470.133,2021-2-17T03:38:29Z
2021-02-17T01:40:28Z,42.805,6.029,13.3027,4.60044,2470.147,2021-2-17T03:41:32Z
2021-02-17T01:43:31Z,42.805,6.029,13.3010,4.60039,2470.171,2021-2-17T03:44:35Z
2021-02-17T01:46:34Z,42.805,6.029,13.3015,4.60004,2470.171,2021-2-17T03:47:38Z
2021-02-17T01:49:37Z,42.805,6.029,13.3020,4.60020,2470.11,2021-2-17T03:50:41Z
2021-02-17T01:52:40Z,42.805,6.029,13.3014,4.60031,2470.147,2021-2-17T03:53:44Z
2021-02-17T01:55:43Z,42.805,6.029,13.3011,4.60040,2470.147,2021-2-17T03:56:47Z
2021-02-17T01:58:46Z,42.805,6.029,13.3056,4.60020,2470.133,2021-2-17T03:59:50Z
2021-02-17T02:01:49Z,42.805,6.029,13.3026,4.60027,2470.133,2021-2-17T04:02:54Z
2021-02-17T02:04:53Z,42.805,6.029,13.3026,4.60021,2470.171,2021-2-17T04:05:57Z
2021-02-17T02:07:56Z,42.805,6.029,13.3014,4.60036,2470.171,2021-2-17T04:09:00Z
2021-02-17T02:10:59Z,42.805,6.029,13.3007,4.60029,2470.147,2021-2-17T04:12:03Z
2021-02-17T02:14:02Z,42.805,6.029,13.3063,4.60026,2470.171,2021-2-17T04:15:06Z
2021-02-17T02:17:05Z,42.805,6.029,13.3024,4.60052,2470.147,2021-2-17T04:18:09Z
2021-02-17T02:20:08Z,42.805,6.029,13.3034,4.60027,2470.133,2021-2-17T04:21:12Z
2021-02-17T02:23:11Z,42.805,6.029,13.3023,4.60025,2470.1,2021-2-17T04:24:15Z
2021-02-17T02:26:14Z,42.805,6.029,13.3018,4.60022,2470.133,2021-2-17T04:27:18Z
2021-02-17T02:29:18Z,42.805,6.029,13.3016,4.60040,2470.11,2021-2-17T04:30:22Z
2021-02-17T02:32:21Z,42.805,6.029,13.3006,4.60016,2470.171,2021-2-17T04:33:25Z
2021-02-17T02:35:24Z,42.805,6.029,13.3012,4.60009,2470.133,2021-2-17T04:36:28Z
2021-02-17T02:38:27Z,42.805,6.029,13.3026,4.60035,2470.147,2021-2-17T04:39:31Z
2021-02-17T02:41:30Z,42.805,6.029,13.3036,4.60025,2470.087,2021-2-17T04:42:34Z
2021-02-17T02:44:33Z,42.805,6.029,13.3024,4.60046,2470.147,2021-2-17T04:45:37Z
2021-02-17T02:47:36Z,42.805,6.029,13.3040,4.60039,2470.147,2021-2-17T04:48:40Z
2021-02-17T02:50:39Z,42.805,6.029,13.3054,4.60038,2470.124,2021-2-17T04:51:43Z
2021-02-17T02:53:43Z,42.805,6.029,13.3058,4.60046,2470.171,2021-2-17T04:54:47Z
2021-02-17T02:56:46Z,42.805,6.029,13.3049,4.60053,2470.1,2021-2-17T04:57:50Z
2021-02-17T02:59:49Z,42.805,6.029,13.3048,4.60035,2470.133,2021-2-17T05:00:53Z
2021-02-17T03:02:52Z,42.805,6.029,13.3061,4.60036,2470.147,2021-2-17T05:03:56Z
2021-02-17T03:05:55Z,42.805,6.029,13.3028,4.60054,2470.124,2021-2-17T05:06:59Z
2021-02-17T03:08:58Z,42.805,6.029,13.3015,4.60022,2470.124,2021-2-17T05:10:02Z
2021-02-17T03:12:01Z,42.805,6.029,13.3059,4.60020,2470.11,2021-2-17T05:13:05Z
2021-02-17T03:15:04Z,42.805,6.029,13.3047,4.60050,2470.11,2021-2-17T05:16:08Z
2021-02-17T03:18:08Z,42.805,6.029,13.3014,4.60042,2470.124,2021-2-17T05:19:12Z
2021-02-17T03:21:11Z,42.805,6.029,13.3068,4.60033,2470.124,2021-2-17T05:22:15Z
2021-02-17T03:24:14Z,42.805,6.029,13.3048,4.60026,2470.1,2021-2-17T05:25:18Z
2021-02-17T03:27:17Z,42.805,6.029,13.3042,4.60029,2470.147,2021-2-17T05:28:21Z
2021-02-17T03:30:20Z,42.805,6.029,13.3046,4.60028,2470.147,2021-2-17T05:31:24Z
2021-02-17T03:33:23Z,42.805,6.029,13.3034,4.60039,2470.124,2021-2-17T05:34:27Z
2021-02-17T03:36:26Z,42.805,6.029,13.3037,4.60046,2470.133,2021-2-17T05:37:30Z
2021-02-17T03:39:29Z,42.805,6.029,13.3052,4.60029,2470.124,2021-2-17T05:40:33Z
2021-02-17T03:42:33Z,42.805,6.029,13.3046,4.60016,2470.1,2021-2-17T05:43:37Z
2021-02-17T03:45:36Z,42.805,6.029,13.3045,4.60026,2470.147,2021-2-17T05:46:40Z
2021-02-17T03:48:39Z,42.805,6.029,13.3050,4.60024,2470.11,2021-2-17T05:49:43Z
2021-02-17T03:51:42Z,42.805,6.029,13.3033,4.60026,2470.124,2021-2-17T05:52:46Z
2021-02-17T03:54:45Z,42.805,6.029,13.3034,4.60015,2470.124,2021-2-17T05:55:49Z
2021-02-17T03:57:48Z,42.805,6.029,13.3034,4.60017,2470.087,2021-2-17T05:58:52Z
2021-02-17T04:00:51Z,42.805,6.029,13.3057,4.60031,2470.147,2021-2-17T06:01:55Z
2021-02-17T04:03:54Z,42.805,6.029,13.3039,4.60045,2470.1,2021-2-17T06:04:58Z
2021-02-17T04:06:58Z,42.805,6.029,13.3060,4.60033,2470.124,2021-2-17T06:08:02Z
2021-02-17T04:10:01Z,42.805,6.029,13.3047,4.60039,2470.147,2021-2-17T06:11:05Z
2021-02-17T04:13:04Z,42.805,6.029,13.3047,4.60041,2470.147,2021-2-17T06:14:08Z
2021-02-17T04:16:07Z,42.805,6.029,13.3052,4.60049,2470.124,2021-2-17T06:17:11Z
2021-02-17T04:19:10Z,42.805,6.029,13.3056,4.60052,2470.087,2021-2-17T06:20:14Z
2021-02-17T04:22:13Z,42.805,6.029,13.3054,4.60052,2470.147,2021-2-17T06:23:17Z
2021-02-17T04:25:16Z,42.805,6.029,13.3064,4.60036,2470.11,2021-2-17T06:26:20Z
2021-02-17T04:28:19Z,42.805,6.029,13.3051,4.60055,2470.156,2021-2-17T06:29:23Z
2021-02-17T04:31:23Z,42.805,6.029,13.3052,4.60033,2470.124,2021-2-17T06:32:27Z
2021-02-17T04:34:26Z,42.805,6.029,13.3061,4.60038,2470.1,2021-2-17T06:35:30Z
2021-02-17T04:37:29Z,42.805,6.029,13.3047,4.60054,2470.124,2021-2-17T06:38:33Z
2021-02-17T04:40:32Z,42.805,6.029,13.3042,4.60027,2470.1,2021-2-17T06:41:36Z
2021-02-17T04:43:35Z,42.805,6.029,13.3039,4.60010,2470.124,2021-2-17T06:44:39Z
2021-02-17T04:46:38Z,42.805,6.029,13.3060,4.60041,2470.11,2021-2-17T06:47:42Z
2021-02-17T04:49:41Z,42.805,6.029,13.3036,4.60033,2470.11,2021-2-17T06:50:45Z
2021-02-17T04:52:44Z,42.805,6.029,13.3022,4.60023,2470.11,2021-2-17T06:53:48Z
2021-02-17T04:55:48Z,42.805,6.029,13.3034,4.60049,2470.1,2021-2-17T06:56:52Z
2021-02-17T04:58:51Z,42.805,6.029,13.3048,4.60054,2470.1,2021-2-17T06:59:55Z
2021-02-17T05:01:54Z,42.805,6.029,13.3050,4.60016,2470.11,2021-2-17T07:02:58Z
2021-02-17T05:04:57Z,42.805,6.029,13.3034,4.60028,2470.11,2021-2-17T07:06:01Z
2021-02-17T05:08:00Z,42.805,6.029,13.3036,4.60044,2470.087,2021-2-17T07:09:04Z
2021-02-17T05:11:03Z,42.805,6.029,13.3071,4.60040,2470.147,2021-2-17T07:12:07Z
2021-02-17T05:14:06Z,42.805,6.029,13.3051,4.60064,2470.124,2021-2-17T07:15:10Z
2021-02-17T05:17:09Z,42.805,6.029,13.3051,4.60029,2470.147,2021-2-17T07:18:13Z
2021-02-17T05:20:12Z,42.805,6.029,13.3056,4.60026,2470.124,2021-2-17T07:21:17Z
2021-02-17T05:23:16Z,42.805,6.029,13.3044,4.60026,2470.124,2021-2-17T07:24:20Z
2021-02-17T05:26:19Z,42.805,6.029,13.3028,4.60052,2470.1,2021-2-17T07:27:23Z
2021-02-17T05:29:22Z,42.805,6.029,13.3062,4.60028,2470.087,2021-2-17T07:30:26Z
2021-02-17T05:32:25Z,42.805,6.029,13.3067,4.60030,2470.077,2021-2-17T07:33:29Z
2021-02-17T05:35:28Z,42.805,6.029,13.3040,4.60026,2470.124,2021-2-17T07:36:32Z
2021-02-17T05:38:31Z,42.805,6.029,13.3058,4.60029,2470.133,2021-2-17T07:39:35Z
2021-02-17T05:41:34Z,42.805,6.029,13.3043,4.60035,2470.11,2021-2-17T07:42:38Z
2021-02-17T05:44:37Z,42.805,6.029,13.3068,4.60034,2470.133,2021-2-17T07:45:42Z
2021-02-17T05:47:41Z,42.805,6.029,13.3042,4.60035,2470.124,2021-2-17T07:48:45Z
2021-02-17T05:50:44Z,42.805,6.029,13.3026,4.60059,2470.147,2021-2-17T07:51:48Z
2021-02-17T05:53:47Z,42.805,6.029,13.3034,4.60036,2470.087,2021-2-17T07:54:51Z
2021-02-17T05:56:50Z,42.805,6.029,13.3052,4.60027,2470.1,2021-2-17T07:57:54Z
2021-02-17T05:59:53Z,42.805,6.029,13.3031,4.60028,2470.147,2021-2-17T08:00:57Z
2021-02-17T06:02:56Z,42.805,6.029,13.3035,4.60026,2470.087,2021-2-17T08:04:00Z
2021-02-17T06:05:59Z,42.805,6.029,13.3048,4.60038,2470.147,2021-2-17T08:07:03Z
2021-02-17T06:09:02Z,42.805,6.029,13.3039,4.60019,2470.133,2021-2-17T08:10:06Z
2021-02-17T06:12:06Z,42.805,6.029,13.3030,4.60024,2470.133,2021-2-17T08:13:10Z
2021-02-17T06:15:09Z,42.805,6.029,13.3035,4.60017,2470.11,2021-2-17T08:16:13Z
2021-02-17T06:18:12Z,42.805,6.029,13.3020,4.60024,2470.156,2021-2-17T08:19:16Z
2021-02-17T06:21:15Z,42.805,6.029,13.3036,4.60025,2470.147,2021-2-17T08:22:19Z
2021-02-17T06:24:18Z,42.805,6.029,13.3029,4.60021,2470.147,2021-2-17T08:25:22Z
2021-02-17T06:27:21Z,42.805,6.029,13.3034,4.60024,2470.124,2021-2-17T08:28:25Z
2021-02-17T06:30:24Z,42.805,6.029,13.3029,4.60024,2470.147,2021-2-17T08:31:28Z
2021-02-17T06:33:27Z,42.805,6.029,13.3022,4.60011,2470.133,2021-2-17T08:34:31Z
2021-02-17T06:36:31Z,42.805,6.029,13.3014,4.60017,2470.124,2021-2-17T08:37:35Z
2021-02-17T06:39:34Z,42.805,6.029,13.3016,4.60013,2470.133,2021-2-17T08:40:38Z
2021-02-17T06:42:37Z,42.805,6.029,13.3038,4.60011,2470.171,2021-2-17T08:43:41Z
2021-02-17T06:45:40Z,42.805,6.029,13.3015,4.60021,2470.194,2021-2-17T08:46:44Z
2021-02-17T06:48:43Z,42.805,6.029,13.3046,4.60014,2470.171,2021-2-17T08:49:47Z
2021-02-17T06:51:46Z,42.805,6.029,13.3044,4.60023,2470.156,2021-2-17T08:52:50Z
2021-02-17T06:54:49Z,42.805,6.029,13.3043,4.60014,2470.156,2021-2-17T08:55:53Z
2021-02-17T06:57:52Z,42.805,6.029,13.3026,4.60016,2470.18,2021-2-17T08:58:56Z
2021-02-17T07:00:56Z,42.805,6.029,13.3029,4.60015,2470.133,2021-2-17T09:02:00Z
2021-02-17T07:03:59Z,42.805,6.029,13.3026,4.60020,2470.18,2021-2-17T09:05:03Z
2021-02-17T07:07:02Z,42.805,6.029,13.3028,4.60023,2470.156,2021-2-17T09:08:06Z
2021-02-17T07:10:05Z,42.805,6.029,13.3023,4.60026,2470.133,2021-2-17T09:11:09Z
2021-02-17T07:13:08Z,42.805,6.029,13.3024,4.60022,2470.171,2021-2-17T09:14:12Z
2021-02-17T07:16:11Z,42.805,6.029,13.3040,4.60021,2470.156,2021-2-17T09:17:15Z
2021-02-17T07:19:14Z,42.805,6.029,13.3039,4.60017,2470.171,2021-2-17T09:20:18Z
2021-02-17T07:22:17Z,42.805,6.029,13.3028,4.60014,2470.194,2021-2-17T09:23:21Z
2021-02-17T07:25:21Z,42.805,6.029,13.3033,4.60025,2470.171,2021-2-17T09:26:25Z
2021-02-17T07:28:24Z,42.805,6.029,13.3031,4.60013,2470.18,2021-2-17T09:29:28Z
2021-02-17T07:31:27Z,42.805,6.029,13.3021,4.60025,2470.194,2021-2-17T09:32:31Z
2021-02-17T07:34:30Z,42.805,6.029,13.3026,4.60029,2470.194,2021-2-17T09:35:34Z
2021-02-17T07:37:33Z,42.805,6.029,13.3021,4.60016,2470.156,2021-2-17T09:38:37Z
2021-02-17T07:40:36Z,42.805,6.029,13.3008,4.60016,2470.194,2021-2-17T09:41:40Z
2021-02-17T07:43:39Z,42.805,6.029,13.3019,4.60019,2470.133,2021-2-17T09:44:43Z
2021-02-17T07:46:42Z,42.805,6.029,13.3018,4.60026,2470.171,2021-2-17T09:47:46Z
2021-02-17T07:49:46Z,42.805,6.029,13.3020,4.60023,2470.203,2021-2-17T09:50:50Z
2021-02-17T07:52:49Z,42.805,6.029,13.3028,4.60021,2470.18,2021-2-17T09:53:53Z
2021-02-17T07:55:52Z,42.805,6.029,13.3016,4.60026,2470.203,2021-2-17T09:56:56Z
2021-02-17T07:58:55Z,42.805,6.029,13.3020,4.60017,2470.18,2021-2-17T09:59:59Z
2021-02-17T08:01:58Z,42.805,6.029,13.3019,4.60026,2470.156,2021-2-17T10:03:02Z
2021-02-17T08:05:01Z,42.805,6.029,13.3023,4.60016,2470.18,2021-2-17T10:06:05Z
2021-02-17T08:08:04Z,42.805,6.029,13.3019,4.60029,2470.227,2021-2-17T10:09:08Z
2021-02-17T08:11:07Z,42.805,6.029,13.3026,4.60019,2470.217,2021-2-17T10:12:11Z
2021-02-17T08:14:11Z,42.805,6.029,13.3024,4.60023,2470.194,2021-2-17T10:15:15Z
2021-02-17T08:17:14Z,42.805,6.029,13.3026,4.60033,2470.194,2021-2-17T10:18:18Z
2021-02-17T08:20:17Z,42.805,6.029,13.3015,4.60024,2470.217,2021-2-17T10:21:21Z
2021-02-17T08:23:20Z,42.805,6.029,13.3083,4.60055,2470.217,2021-2-17T10:24:24Z
2021-02-17T08:26:23Z,42.805,6.029,13.3009,4.60024,2470.24,2021-2-17T10:27:27Z
2021-02-17T08:29:26Z,42.805,6.029,13.2996,4.60015,2470.24,2021-2-17T10:30:30Z
2021-02-17T08:32:29Z,42.805,6.029,13.3043,4.60072,2470.24,2021-2-17T10:33:33Z
2021-02-17T08:35:32Z,42.805,6.029,13.3019,4.60031,2470.264,2021-2-17T10:36:37Z
2021-02-17T08:38:36Z,42.805,6.029,13.3045,4.60044,2470.227,2021-2-17T10:39:40Z
2021-02-17T08:41:39Z,42.805,6.029,13.3026,4.60036,2470.24,2021-2-17T10:42:43Z
2021-02-17T08:44:42Z,42.805,6.029,13.3027,4.60025,2470.227,2021-2-17T10:45:46Z
2021-02-17T08:47:45Z,42.805,6.029,13.2982,4.60022,2470.25,2021-2-17T10:48:49Z
2021-02-17T08:50:48Z,42.805,6.029,13.2984,4.60029,2470.264,2021-2-17T10:51:52Z
2021-02-17T08:53:51Z,42.805,6.029,13.2982,4.60026,2470.24,2021-2-17T10:54:55Z
2021-02-17T08:56:54Z,42.805,6.029,13.2982,4.60025,2470.227,2021-2-17T10:57:58Z
2021-02-17T08:59:58Z,42.805,6.029,13.2985,4.60017,2470.25,2021-2-17T11:01:02Z
2021-02-17T09:03:01Z,42.805,6.029,13.2989,4.60015,2470.273,2021-2-17T11:04:05Z
2021-02-17T09:06:04Z,42.805,6.029,13.2979,4.60032,2470.264,2021-2-17T11:07:08Z
2021-02-17T09:09:07Z,42.805,6.029,13.2982,4.60009,2470.287,2021-2-17T11:10:11Z
2021-02-17T09:12:10Z,42.805,6.029,13.2983,4.60016,2470.287,2021-2-17T11:13:14Z
2021-02-17T09:15:13Z,42.805,6.029,13.2982,4.60020,2470.31,2021-2-17T11:16:17Z
2021-02-17T09:18:16Z,42.805,6.029,13.2986,4.60009,2470.31,2021-2-17T11:19:20Z
2021-02-17T09:21:19Z,42.805,6.029,13.2983,4.60014,2470.25,2021-2-17T11:22:23Z
2021-02-17T09:24:23Z,42.805,6.029,13.3000,4.60008,2470.25,2021-2-17T11:25:27Z
2021-02-17T09:27:26Z,42.805,6.029,13.2980,4.60019,2470.273,2021-2-17T11:28:30Z
2021-02-17T09:30:29Z,42.805,6.029,13.2979,4.60021,2470.273,2021-2-17T11:31:33Z
2021-02-17T09:33:32Z,42.805,6.029,13.2981,4.60016,2470.264,2021-2-17T11:34:36Z
2021-02-17T09:36:35Z,42.805,6.029,13.2988,4.60016,2470.25,2021-2-17T11:37:39Z
2021-02-17T09:39:38Z,42.805,6.029,13.2992,4.60016,2470.264,2021-2-17T11:40:42Z
2021-02-17T09:42:41Z,42.805,6.029,13.3029,4.60010,2470.297,2021-2-17T11:43:45Z
2021-02-17T09:45:44Z,42.805,6.029,13.2992,4.60021,2470.31,2021-2-17T11:46:48Z
2021-02-17T09:48:48Z,42.805,6.029,13.2983,4.60029,2470.273,2021-2-17T11:49:52Z
2021-02-17T09:51:51Z,42.805,6.029,13.2983,4.60034,2470.264,2021-2-17T11:52:55Z
2021-02-17T09:54:54Z,42.805,6.029,13.2989,4.60009,2470.273,2021-2-17T11:55:58Z
2021-02-17T09:57:57Z,42.805,6.029,13.2998,4.60013,2470.287,2021-2-17T11:59:01Z
2021-02-17T10:01:00Z,42.805,6.029,13.2990,4.60027,2470.31,2021-2-17T12:02:04Z
2021-02-17T10:04:03Z,42.805,6.029,13.2983,4.60019,2470.227,2021-2-17T12:05:07Z
2021-02-17T10:07:06Z,42.805,6.029,13.2979,4.60027,2470.31,2021-2-17T12:08:10Z
2021-02-17T10:10:09Z,42.805,6.029,13.2982,4.60015,2470.297,2021-2-17T12:11:14Z
2021-02-17T10:13:13Z,42.805,6.029,13.2999,4.60028,2470.297,2021-2-17T12:14:17Z
2021-02-17T10:16:16Z,42.805,6.029,13.2990,4.60066,2470.334,2021-2-17T12:17:20Z
2021-02-17T10:19:19Z,42.805,6.029,13.3017,4.60039,2470.31,2021-2-17T12:20:23Z
2021-02-17T10:22:22Z,42.805,6.029,13.3020,4.60035,2470.31,2021-2-17T12:23:26Z
2021-02-17T10:25:25Z,42.805,6.029,13.2986,4.60036,2470.31,2021-2-17T12:26:29Z
2021-02-17T10:28:28Z,42.805,6.029,13.2980,4.60033,2470.287,2021-2-17T12:29:32Z
2021-02-17T10:31:31Z,42.805,6.029,13.2979,4.60057,2470.32,2021-2-17T12:32:35Z
2021-02-17T10:34:34Z,42.805,6.029,13.2982,4.60027,2470.334,2021-2-17T12:35:39Z
2021-02-17T10:37:38Z,42.805,6.029,13.3059,4.60012,2470.31,2021-2-17T12:38:42Z
2021-02-17T10:40:41Z,42.805,6.029,13.2989,4.60021,2470.273,2021-2-17T12:41:45Z
2021-02-17T10:43:44Z,42.805,6.029,13.3015,4.60042,2470.297,2021-2-17T12:44:48Z
2021-02-17T10:46:47Z,42.805,6.029,13.3068,4.60022,2470.32,2021-2-17T12:47:51Z
2021-02-17T10:49:50Z,42.805,6.029,13.3000,4.60021,2470.334,2021-2-17T12:50:54Z
2021-02-17T10:52:53Z,42.805,6.029,13.3039,4.60046,2470.31,2021-2-17T12:53:57Z
2021-02-17T10:55:56Z,42.805,6.029,13.3045,4.60027,2470.32,2021-2-17T12:57:00Z
2021-02-17T10:59:00Z,42.805,6.029,13.3022,4.60049,2470.287,2021-2-17T13:00:04Z
2021-02-17T11:02:03Z,42.805,6.029,13.3026,4.60037,2470.31,2021-2-17T13:03:07Z
2021-02-17T11:05:06Z,42.805,6.029,13.3063,4.60027,2470.31,2021-2-17T13:06:10Z
2021-02-17T11:08:09Z,42.805,6.029,13.3028,4.60036,2470.31,2021-2-17T13:09:13Z
2021-02-17T11:11:12Z,42.805,6.029,13.3037,4.60042,2470.264,2021-2-17T13:12:16Z
2021-02-17T11:14:15Z,42.805,6.029,13.3038,4.60058,2470.31,2021-2-17T13:15:19Z
2021-02-17T11:17:18Z,42.805,6.029,13.3037,4.60036,2470.273,2021-2-17T13:18:22Z
2021-02-17T11:20:21Z,42.805,6.029,13.3038,4.60033,2470.273,2021-2-17T13:21:25Z
2021-02-17T11:23:25Z,42.805,6.029,13.3046,4.60040,2470.287,2021-2-17T13:24:29Z
2021-02-17T11:26:28Z,42.805,6.029,13.3051,4.60037,2470.297,2021-2-17T13:27:32Z
2021-02-17T11:29:31Z,42.805,6.029,13.3060,4.60031,2470.297,2021-2-17T13:30:35Z
2021-02-17T11:32:34Z,42.805,6.029,13.3035,4.60025,2470.273,2021-2-17T13:33:38Z
2021-02-17T11:35:37Z,42.805,6.029,13.3034,4.60031,2470.273,2021-2-17T13:36:41Z
2021-02-17T11:38:40Z,42.805,6.029,13.3043,4.60042,2470.31,2021-2-17T13:39:44Z
2021-02-17T11:41:43Z,42.805,6.029,13.3043,4.60024,2470.264,2021-2-17T13:42:47Z
2021-02-17T11:44:46Z,42.805,6.029,13.3046,4.60043,2470.31,2021-2-17T13:45:50Z
2021-02-17T11:47:50Z,42.805,6.029,13.3040,4.60032,2470.31,2021-2-17T13:48:54Z
2021-02-17T11:50:53Z,42.805,6.029,13.3036,4.60046,2470.334,2021-2-17T13:51:57Z
2021-02-17T11:53:56Z,42.805,6.029,13.3043,4.60063,2470.297,2021-2-17T13:55:00Z
2021-02-17T11:56:59Z,42.805,6.029,13.3029,4.60028,2470.287,2021-2-17T13:58:03Z
2021-02-17T12:00:02Z,42.805,6.029,13.3048,4.60027,2470.31,2021-2-17T14:01:06Z
2021-02-17T12:03:05Z,42.805,6.029,13.3037,4.60029,2470.31,2021-2-17T14:04:09Z
2021-02-17T12:06:08Z,42.805,6.029,13.3038,4.60028,2470.334,2021-2-17T14:07:12Z
2021-02-17T12:09:11Z,42.805,6.029,13.3027,4.60027,2470.31,2021-2-17T14:10:15Z
2021-02-17T12:12:15Z,42.805,6.029,13.3043,4.60024,2470.297,2021-2-17T14:13:19Z
2021-02-17T12:15:18Z,42.805,6.029,13.3036,4.60014,2470.297,2021-2-17T14:16:22Z
2021-02-17T12:18:21Z,42.805,6.029,13.3069,4.60019,2470.287,2021-2-17T14:19:25Z
2021-02-17T12:21:24Z,42.805,6.029,13.3022,4.60036,2470.287,2021-2-17T14:22:28Z
2021-02-17T12:24:27Z,42.805,6.029,13.3031,4.60023,2470.297,2021-2-17T14:25:31Z
2021-02-17T12:27:30Z,42.805,6.029,13.3034,4.60046,2470.273,2021-2-17T14:28:34Z
2021-02-17T12:30:33Z,42.805,6.029,13.3039,4.60026,2470.287,2021-2-17T14:31:37Z
2021-02-17T12:33:36Z,42.805,6.029,13.3033,4.60026,2470.25,2021-2-17T14:34:41Z
2021-02-17T12:36:40Z,42.805,6.029,13.3036,4.60019,2470.25,2021-2-17T14:37:44Z
2021-02-17T12:39:43Z,42.805,6.029,13.3026,4.60016,2470.287,2021-2-17T14:40:47Z
2021-02-17T12:42:46Z,42.805,6.029,13.3016,4.60017,2470.25,2021-2-17T14:43:50Z
2021-02-17T12:45:49Z,42.805,6.029,13.3019,4.60011,2470.264,2021-2-17T14:46:53Z
2021-02-17T12:48:52Z,42.805,6.029,13.3030,4.60016,2470.264,2021-2-17T14:49:56Z
2021-02-17T12:51:55Z,42.805,6.029,13.3026,4.60020,2470.264,2021-2-17T14:52:59Z
2021-02-17T12:54:58Z,42.805,6.029,13.3026,4.60036,2470.227,2021-2-17T14:56:02Z
2021-02-17T12:58:02Z,42.805,6.029,13.3026,4.60026,2470.264,2021-2-17T14:59:06Z
2021-02-17T13:01:05Z,42.805,6.029,13.3046,4.60026,2470.217,2021-2-17T15:02:09Z
2021-02-17T13:04:08Z,42.805,6.029,13.3045,4.60012,2470.227,2021-2-17T15:05:12Z
2021-02-17T13:07:11Z,42.805,6.029,13.3050,4.60032,2470.25,2021-2-17T15:08:15Z
2021-02-17T13:10:14Z,42.805,6.029,13.3039,4.60019,2470.264,2021-2-17T15:11:18Z
2021-02-17T13:13:17Z,42.805,6.029,13.3021,4.60027,2470.264,2021-2-17T15:14:21Z
2021-02-17T13:16:20Z,42.805,6.029,13.3021,4.60024,2470.24,2021-2-17T15:17:24Z
2021-02-17T13:19:23Z,42.805,6.029,13.3026,4.60016,2470.217,2021-2-17T15:20:27Z
2021-02-17T13:22:27Z,42.805,6.029,13.3034,4.60016,2470.203,2021-2-17T15:23:31Z
2021-02-17T13:25:30Z,42.805,6.029,13.3041,4.60031,2470.273,2021-2-17T15:26:34Z
2021-02-17T13:28:33Z,42.805,6.029,13.3054,4.60021,2470.227,2021-2-17T15:29:37Z
2021-02-17T13:31:36Z,42.805,6.029,13.3028,4.60024,2470.227,2021-2-17T15:32:40Z
2021-02-17T13:34:39Z,42.805,6.029,13.3026,4.60025,2470.25,2021-2-17T15:35:43Z
2021-02-17T13:37:42Z,42.805,6.029,13.3034,4.60039,2470.194,2021-2-17T15:38:46Z
2021-02-17T13:40:45Z,42.805,6.029,13.3039,4.60028,2470.24,2021-2-17T15:41:49Z
2021-02-17T13:43:48Z,42.805,6.029,13.3035,4.60037,2470.227,2021-2-17T15:44:53Z
2021-02-17T13:46:52Z,42.805,6.029,13.3024,4.60044,2470.203,2021-2-17T15:47:56Z
2021-02-17T13:49:55Z,42.805,6.029,13.3026,4.60021,2470.24,2021-2-17T15:50:59Z
2021-02-17T13:52:58Z,42.805,6.029,13.3037,4.60026,2470.217,2021-2-17T15:54:02Z
2021-02-17T13:56:01Z,42.805,6.029,13.3032,4.60024,2470.194,2021-2-17T15:57:05Z
2021-02-17T13:59:04Z,42.805,6.029,13.3029,4.60049,2470.217,2021-2-17T16:00:08Z
2021-02-17T14:02:07Z,42.805,6.029,13.3049,4.60035,2470.24,2021-2-17T16:03:11Z
2021-02-17T14:05:10Z,42.805,6.029,13.3051,4.60054,2470.217,2021-2-17T16:06:14Z
2021-02-17T14:08:13Z,42.805,6.029,13.3040,4.60037,2470.217,2021-2-17T16:09:18Z
2021-02-17T14:11:17Z,42.805,6.029,13.3016,4.60032,2470.203,2021-2-17T16:12:21Z
2021-02-17T14:14:20Z,42.805,6.029,13.3109,4.60036,2470.18,2021-2-17T16:15:24Z
2021-02-17T14:17:23Z,42.805,6.029,13.3067,4.60033,2470.217,2021-2-17T16:18:27Z
2021-02-17T14:20:26Z,42.805,6.029,13.2994,4.60039,2470.203,2021-2-17T16:21:30Z
2021-02-17T14:23:29Z,42.805,6.029,13.2996,4.60041,2470.217,2021-2-17T16:24:33Z
2021-02-17T14:26:32Z,42.805,6.029,13.3019,4.60020,2470.18,2021-2-17T16:27:36Z
2021-02-17T14:29:35Z,42.805,6.029,13.3017,4.60029,2470.166,2021-2-17T16:30:39Z
2021-02-17T14:32:39Z,42.805,6.029,13.3056,4.60029,2470.171,2021-2-17T16:33:43Z
2021-02-17T14:35:42Z,42.805,6.029,13.2989,4.60027,2470.217,2021-2-17T16:36:46Z
2021-02-17T14:38:45Z,42.805,6.029,13.3032,4.60029,2470.217,2021-2-17T16:39:49Z
2021-02-17T14:41:48Z,42.805,6.029,13.2988,4.60029,2470.194,2021-2-17T16:42:52Z
2021-02-17T14:44:51Z,42.805,6.029,13.3020,4.60022,2470.156,2021-2-17T16:45:55Z
2021-02-17T14:47:54Z,42.805,6.029,13.2986,4.60044,2470.203,2021-2-17T16:48:58Z
2021-02-17T14:50:57Z,42.805,6.029,13.3025,4.60026,2470.194,2021-2-17T16:52:01Z
2021-02-17T14:54:00Z,42.805,6.029,13.2995,4.60020,2470.194,2021-2-17T16:55:04Z
2021-02-17T14:57:04Z,42.805,6.029,13.2989,4.60027,2470.24,2021-2-17T16:58:08Z
2021-02-17T15:00:07Z,42.805,6.029,13.2979,4.60040,2470.18,2021-2-17T17:01:11Z
2021-02-17T15:03:10Z,42.805,6.029,13.2979,4.60034,2470.194,2021-2-17T17:04:14Z
2021-02-17T15:06:13Z,42.805,6.029,13.2982,4.60036,2470.203,2021-2-17T17:07:17Z
2021-02-17T15:09:16Z,42.805,6.029,13.2981,4.60023,2470.194,2021-2-17T17:10:20Z
2021-02-17T15:12:19Z,42.805,6.029,13.2979,4.60019,2470.171,2021-2-17T17:13:23Z
2021-02-17T15:15:22Z,42.805,6.029,13.2987,4.60011,2470.18,2021-2-17T17:16:26Z